When you browse on this site, cookies collect data to enhance your experience and personalize the content and advertising you see.
Visit our Privacy Policy to learn more. By continuing to use the site, you agree to this use of cookies and data.
  • In Lithuania
  • List of Countries
  • For 7 days
  • Water Temperature
  • Satellite Maps
  • Weather Map
  • Weather Widgets
  • user-avatar
    Login

    Hourly Weather Staraya Bezginka

    Today, 25 March, Monday

    Time Temperature Precipitation Wind Pressure Humidity
    00:00 0°C° 0 mm 3 mps 744 mmHg 92%
    01:00 0°C° 0 mm 3 mps 744 mmHg 92%
    02:00 -1°C° 0 mm 3 mps 744 mmHg 92%
    03:00 -1°C° 0 mm 2 mps 743 mmHg 93%
    04:00 -1°C° 0 mm 2 mps 744 mmHg 92%
    05:00 -1°C° 0 mm 2 mps 744 mmHg 92%
    06:00 -2°C° 0 mm 2 mps 744 mmHg 91%
    07:00 0°C° 0 mm 3 mps 744 mmHg 86%
    08:00 +1°C° 0 mm 3 mps 744 mmHg 81%
    09:00 +2°C° 0 mm 3 mps 744 mmHg 75%
    10:00 +3°C° 0 mm 4 mps 744 mmHg 67%
    11:00 +5°C° 0 mm 4 mps 744 mmHg 59%
    12:00 +6°C° 0 mm 4 mps 745 mmHg 50%
    13:00 +6°C° 0 mm 4 mps 745 mmHg 48%
    14:00 +8°C° 0 mm 3 mps 745 mmHg 45%
    15:00 +8°C° 0 mm 3 mps 745 mmHg 43%
    16:00 +8°C° 0 mm 2 mps 745 mmHg 46%
    17:00 +8°C° 0 mm 1 mps 745 mmHg 49%
    18:00 +6°C° 0 mm 0 mps 745 mmHg 52%
    19:00 +6°C° 0 mm 1 mps 745 mmHg 55%
    20:00 +5°C° 0 mm 2 mps 745 mmHg 59%
    21:00 +4°C° 0 mm 2 mps 745 mmHg 62%
    22:00 +3°C° 0 mm 3 mps 744 mmHg 64%
    23:00 +3°C° 0 mm 3 mps 744 mmHg 67%

    Tomorrow, 26 March, Tuesday

    Time Temperature Precipitation Wind Pressure Humidity
    00:00 +3°C° 0 mm 3 mps 744 mmHg 69%
    01:00 +3°C° 0 mm 4 mps 744 mmHg 71%
    02:00 +3°C° 0 mm 4 mps 743 mmHg 73%
    03:00 +2°C° 0 mm 5 mps 743 mmHg 74%
    04:00 +2°C° 1 mm 5 mps 742 mmHg 80%
    05:00 +2°C° 1 mm 5 mps 742 mmHg 86%
    06:00 +2°C° 1 mm 5 mps 741 mmHg 91%
    07:00 +2°C° 0.3 mm 6 mps 741 mmHg 89%
    08:00 +3°C° 0.3 mm 7 mps 741 mmHg 87%
    09:00 +4°C° 0.3 mm 7 mps 741 mmHg 86%
    10:00 +4°C° 0 mm 7 mps 741 mmHg 80%
    11:00 +5°C° 0 mm 6 mps 742 mmHg 74%
    12:00 +5°C° 0 mm 6 mps 742 mmHg 68%
    13:00 +7°C° 0 mm 5 mps 742 mmHg 62%
    14:00 +8°C° 0 mm 4 mps 743 mmHg 56%
    15:00 +9°C° 0 mm 3 mps 743 mmHg 50%
    16:00 +9°C° 0 mm 3 mps 743 mmHg 54%
    17:00 +8°C° 0 mm 2 mps 743 mmHg 57%
    18:00 +8°C° 0 mm 2 mps 743 mmHg 61%
    19:00 +7°C° 0.1 mm 2 mps 743 mmHg 65%
    20:00 +7°C° 0.1 mm 1 mps 743 mmHg 69%
    21:00 +7°C° 0.1 mm 1 mps 743 mmHg 72%
    22:00 +6°C° 0.3 mm 1 mps 743 mmHg 76%
    23:00 +5°C° 0.3 mm 2 mps 743 mmHg 79%

    Day after tomorrow, 27 March, Wednesday

    Time Temperature Precipitation Wind Pressure Humidity
    00:00 +5°C° 0.3 mm 2 mps 743 mmHg 82%
    01:00 +4°C° 0.1 mm 2 mps 743 mmHg 85%
    02:00 +2°C° 0.1 mm 3 mps 743 mmHg 87%
    03:00 +2°C° 0.1 mm 3 mps 743 mmHg 89%
    04:00 +1°C° 0 mm 3 mps 743 mmHg 90%
    05:00 0°C° 0 mm 3 mps 744 mmHg 90%
    06:00 -1°C° 0 mm 2 mps 744 mmHg 91%
    07:00 0°C° 0 mm 3 mps 744 mmHg 84%
    08:00 +1°C° 0 mm 3 mps 745 mmHg 76%
    09:00 +2°C° 0 mm 3 mps 745 mmHg 69%
    10:00 +3°C° 0 mm 3 mps 745 mmHg 61%
    11:00 +4°C° 0 mm 3 mps 746 mmHg 52%
    12:00 +5°C° 0 mm 3 mps 746 mmHg 44%
    13:00 +5°C° 0 mm 3 mps 746 mmHg 42%
    14:00 +5°C° 0 mm 3 mps 746 mmHg 40%
    15:00 +7°C° 0 mm 3 mps 746 mmHg 39%
    16:00 +5°C° 0 mm 3 mps 746 mmHg 42%
    17:00 +5°C° 0 mm 3 mps 746 mmHg 46%
    18:00 +4°C° 0 mm 3 mps 746 mmHg 50%
    19:00 +3°C° 0 mm 4 mps 747 mmHg 57%
    20:00 +1°C° 0 mm 4 mps 748 mmHg 64%
    21:00 0°C° 0 mm 4 mps 748 mmHg 71%
    22:00 0°C° 0 mm 3 mps 748 mmHg 75%
    23:00 -1°C° 0 mm 3 mps 749 mmHg 79%

    28 March, Thursday

    Time Temperature Precipitation Wind Pressure Humidity
    00:00 -1°C° 0 mm 2 mps 749 mmHg 82%
    01:00 -1°C° 0 mm 2 mps 749 mmHg 82%
    02:00 -2°C° 0 mm 2 mps 750 mmHg 81%
    03:00 -2°C° 0 mm 2 mps 750 mmHg 81%
    04:00 -2°C° 0 mm 2 mps 750 mmHg 79%
    05:00 -2°C° 0 mm 2 mps 751 mmHg 76%
    06:00 -2°C° 0 mm 2 mps 751 mmHg 74%
    07:00 -1°C° 0 mm 2 mps 751 mmHg 70%
    08:00 0°C° 0 mm 3 mps 752 mmHg 66%
    09:00 +1°C° 0 mm 3 mps 752 mmHg 62%
    10:00 +1°C° 0 mm 4 mps 752 mmHg 57%
    11:00 +1°C° 0 mm 4 mps 752 mmHg 52%
    12:00 +2°C° 0 mm 5 mps 753 mmHg 48%
    13:00 +2°C° 0 mm 5 mps 753 mmHg 49%
    14:00 +2°C° 0 mm 5 mps 753 mmHg 50%
    15:00 +2°C° 0 mm 6 mps 753 mmHg 51%
    16:00 +1°C° 0 mm 5 mps 753 mmHg 54%
    17:00 +1°C° 0 mm 5 mps 753 mmHg 57%
    18:00 0°C° 0 mm 5 mps 753 mmHg 59%
    19:00 -1°C° 0 mm 4 mps 754 mmHg 65%
    20:00 -1°C° 0 mm 4 mps 754 mmHg 71%
    21:00 -1°C° 0 mm 3 mps 755 mmHg 77%
    22:00 -1°C° 0 mm 3 mps 755 mmHg 79%
    23:00 -1°C° 0 mm 3 mps 755 mmHg 80%

    29 March, Friday

    Time Temperature Precipitation Wind Pressure Humidity
    00:00 -2°C° 0 mm 3 mps 755 mmHg 82%
    01:00 -2°C° 0 mm 3 mps 755 mmHg 81%
    02:00 -2°C° 0 mm 3 mps 755 mmHg 81%
    03:00 -2°C° 0 mm 3 mps 754 mmHg 80%
    04:00 -2°C° 0 mm 3 mps 754 mmHg 80%
    05:00 -2°C° 0 mm 3 mps 754 mmHg 79%
    06:00 -2°C° 0 mm 3 mps 753 mmHg 79%
    07:00 -2°C° 0 mm 4 mps 753 mmHg 71%
    08:00 -1°C° 0 mm 5 mps 753 mmHg 64%
    09:00 0°C° 0 mm 5 mps 752 mmHg 57%
    10:00 +1°C° 0 mm 6 mps 751 mmHg 55%
    11:00 +1°C° 0 mm 6 mps 751 mmHg 54%
    12:00 +2°C° 0 mm 7 mps 750 mmHg 52%
    13:00 +2°C° 0.6 mm 7 mps 749 mmHg 61%
    14:00 0°C° 0.6 mm 7 mps 748 mmHg 70%
    15:00 -1°C° 0.6 mm 7 mps 748 mmHg 79%
    16:00 -1°C° 0.5 mm 6 mps 748 mmHg 81%
    17:00 +1°C° 0.5 mm 5 mps 747 mmHg 84%
    18:00 +1°C° 0.5 mm 5 mps 747 mmHg 86%
    19:00 0°C° 0 mm 4 mps 748 mmHg 87%
    20:00 -1°C° 0 mm 4 mps 748 mmHg 88%
    21:00 -1°C° 0 mm 4 mps 748 mmHg 89%
    22:00 -2°C° 0 mm 4 mps 749 mmHg 90%
    23:00 -1°C° 0 mm 3 mps 749 mmHg 91%

    30 March, Saturday

    Time Temperature Precipitation Wind Pressure Humidity
    00:00 -2°C° 0 mm 3 mps 750 mmHg 92%
    01:00 -2°C° 0 mm 3 mps 750 mmHg 92%
    02:00 -2°C° 0 mm 3 mps 750 mmHg 92%
    03:00 -2°C° 0 mm 3 mps 751 mmHg 93%
    04:00 -3°C° 0 mm 2 mps 751 mmHg 93%
    05:00 -3°C° 0 mm 2 mps 751 mmHg 93%
    06:00 -3°C° 0 mm 2 mps 751 mmHg 93%
    07:00 -2°C° 0 mm 2 mps 752 mmHg 90%
    08:00 -1°C° 0 mm 2 mps 752 mmHg 86%
    09:00 +2°C° 0 mm 1 mps 752 mmHg 83%
    10:00 +3°C° 0 mm 1 mps 753 mmHg 78%
    11:00 +4°C° 0 mm 1 mps 753 mmHg 74%
    12:00 +6°C° 0 mm 1 mps 753 mmHg 69%
    13:00 +6°C° 0 mm 1 mps 753 mmHg 66%
    14:00 +6°C° 0 mm 2 mps 753 mmHg 63%
    15:00 +7°C° 0 mm 2 mps 752 mmHg 60%
    16:00 +7°C° 0 mm 2 mps 752 mmHg 64%
    17:00 +6°C° 0 mm 2 mps 752 mmHg 67%
    18:00 +6°C° 0 mm 2 mps 752 mmHg 71%
    19:00 +5°C° 0 mm 2 mps 752 mmHg 74%
    20:00 +4°C° 0 mm 2 mps 752 mmHg 76%
    21:00 +2°C° 0 mm 3 mps 752 mmHg 79%
    22:00 +1°C° 0 mm 3 mps 752 mmHg 81%
    23:00 +1°C° 0 mm 3 mps 752 mmHg 83%
    Show more